When you browse on this site, cookies collect data to enhance your experience and personalize the content and advertising you see.
Visit our Privacy Policy to learn more. By continuing to use the site, you agree to this use of cookies and data.
  • In Österreich
  • Länderverzeichnis
  • Für 7 Tage
  • Wassertemperatur
  • Wetterkarte
  • News
  • Widgets
  • user-avatar
    Anmelden

    Stündliche Wetter Tula de Allende

    Heute, 15 Dezember, Sonntag

    Zeit Temperatur Niederschläge Wind Luftdruck Luftfeuchtigkeit
    00:00 +13°C° 0 mm 1 m/S 592 mmHg 44%
    01:00 +12°C° 0 mm 1 m/S 592 mmHg 46%
    02:00 +12°C° 0 mm 1 m/S 592 mmHg 48%
    03:00 +12°C° 0 mm 1 m/S 591 mmHg 50%
    04:00 +11°C° 0 mm 1 m/S 591 mmHg 51%
    05:00 +11°C° 0 mm 1 m/S 591 mmHg 53%
    06:00 +13°C° 0 mm 1 m/S 592 mmHg 48%
    07:00 +15°C° 0 mm 1 m/S 594 mmHg 44%
    08:00 +16°C° 0 mm 1 m/S 595 mmHg 39%
    09:00 +20°C° 0 mm 1 m/S 596 mmHg 33%
    10:00 +20°C° 0 mm 0 m/S 596 mmHg 28%
    11:00 +22°C° 0 mm 0 m/S 597 mmHg 22%
    12:00 +22°C° 0 mm 0 m/S 596 mmHg 20%
    13:00 +25°C° 0 mm 1 m/S 596 mmHg 18%
    14:00 +25°C° 0 mm 1 m/S 595 mmHg 16%
    15:00 +24°C° 0 mm 1 m/S 595 mmHg 20%
    16:00 +22°C° 0 mm 1 m/S 594 mmHg 23%
    17:00 +20°C° 0 mm 1 m/S 593 mmHg 27%
    18:00 +19°C° 0 mm 1 m/S 593 mmHg 31%
    19:00 +18°C° 0 mm 1 m/S 594 mmHg 35%
    20:00 +16°C° 0 mm 1 m/S 594 mmHg 39%
    21:00 +15°C° 0 mm 1 m/S 594 mmHg 45%
    22:00 +15°C° 0 mm 1 m/S 593 mmHg 50%
    23:00 +14°C° 0 mm 1 m/S 593 mmHg 56%

    Morgen, 16 Dezember, Montag

    Zeit Temperatur Niederschläge Wind Luftdruck Luftfeuchtigkeit
    00:00 +13°C° 0 mm 1 m/S 593 mmHg 60%
    01:00 +13°C° 0 mm 1 m/S 592 mmHg 64%
    02:00 +13°C° 0 mm 1 m/S 592 mmHg 68%
    03:00 +12°C° 0 mm 1 m/S 592 mmHg 69%
    04:00 +12°C° 0 mm 1 m/S 592 mmHg 70%
    05:00 +11°C° 0 mm 1 m/S 592 mmHg 71%
    06:00 +13°C° 0 mm 1 m/S 593 mmHg 65%
    07:00 +15°C° 0 mm 1 m/S 594 mmHg 58%
    08:00 +16°C° 0 mm 1 m/S 595 mmHg 52%
    09:00 +19°C° 0 mm 1 m/S 595 mmHg 46%
    10:00 +21°C° 0 mm 1 m/S 596 mmHg 39%
    11:00 +23°C° 0 mm 1 m/S 596 mmHg 33%
    12:00 +23°C° 0 mm 1 m/S 596 mmHg 31%
    13:00 +24°C° 0 mm 1 m/S 595 mmHg 28%
    14:00 +25°C° 0 mm 1 m/S 595 mmHg 26%
    15:00 +23°C° 0 mm 2 m/S 595 mmHg 30%
    16:00 +21°C° 0 mm 2 m/S 594 mmHg 34%
    17:00 +20°C° 0 mm 2 m/S 594 mmHg 37%
    18:00 +19°C° 0 mm 2 m/S 594 mmHg 42%
    19:00 +19°C° 0 mm 1 m/S 595 mmHg 46%
    20:00 +18°C° 0 mm 1 m/S 595 mmHg 50%
    21:00 +16°C° 0 mm 1 m/S 595 mmHg 53%
    22:00 +15°C° 0 mm 1 m/S 594 mmHg 56%
    23:00 +15°C° 0 mm 1 m/S 594 mmHg 60%

    übermorgen, 17 Dezember, Dienstag

    Zeit Temperatur Niederschläge Wind Luftdruck Luftfeuchtigkeit
    00:00 +14°C° 0 mm 1 m/S 594 mmHg 63%
    01:00 +13°C° 0 mm 1 m/S 593 mmHg 66%
    02:00 +12°C° 0 mm 1 m/S 593 mmHg 69%
    03:00 +12°C° 0 mm 1 m/S 593 mmHg 72%
    04:00 +11°C° 0 mm 1 m/S 593 mmHg 74%
    05:00 +11°C° 0 mm 1 m/S 593 mmHg 77%
    06:00 +12°C° 0 mm 1 m/S 594 mmHg 73%
    07:00 +13°C° 0 mm 1 m/S 595 mmHg 69%
    08:00 +14°C° 0 mm 2 m/S 596 mmHg 65%
    09:00 +15°C° 0 mm 2 m/S 596 mmHg 61%
    10:00 +16°C° 0 mm 2 m/S 596 mmHg 56%
    11:00 +18°C° 0 mm 2 m/S 597 mmHg 52%
    12:00 +18°C° 0 mm 3 m/S 596 mmHg 50%
    13:00 +19°C° 0 mm 3 m/S 596 mmHg 49%
    14:00 +19°C° 0 mm 4 m/S 595 mmHg 48%
    15:00 +17°C° 0 mm 3 m/S 595 mmHg 59%
    16:00 +14°C° 0 mm 3 m/S 594 mmHg 70%
    17:00 +13°C° 0 mm 3 m/S 594 mmHg 80%
    18:00 +12°C° 0 mm 3 m/S 594 mmHg 81%
    19:00 +13°C° 0 mm 2 m/S 595 mmHg 82%
    20:00 +12°C° 0 mm 2 m/S 595 mmHg 83%
    21:00 +10°C° 0 mm 2 m/S 595 mmHg 83%
    22:00 +10°C° 0 mm 2 m/S 595 mmHg 83%
    23:00 +9°C° 0 mm 2 m/S 595 mmHg 84%

    18 Dezember, Mittwoch

    Zeit Temperatur Niederschläge Wind Luftdruck Luftfeuchtigkeit
    00:00 +9°C° 0 mm 2 m/S 594 mmHg 83%
    01:00 +8°C° 0 mm 2 m/S 594 mmHg 83%
    02:00 +8°C° 0 mm 2 m/S 594 mmHg 83%
    03:00 +8°C° 0 mm 2 m/S 594 mmHg 84%
    04:00 +7°C° 0 mm 2 m/S 594 mmHg 84%
    05:00 +7°C° 0 mm 2 m/S 594 mmHg 84%
    06:00 +7°C° 0 mm 2 m/S 594 mmHg 82%
    07:00 +7°C° 0 mm 2 m/S 595 mmHg 80%
    08:00 +7°C° 0 mm 2 m/S 595 mmHg 79%
    09:00 +9°C° 0 mm 2 m/S 596 mmHg 72%
    10:00 +12°C° 0 mm 2 m/S 596 mmHg 65%
    11:00 +14°C° 0 mm 2 m/S 596 mmHg 59%
    12:00 +13°C° 0 mm 3 m/S 596 mmHg 56%
    13:00 +14°C° 0 mm 3 m/S 595 mmHg 53%
    14:00 +16°C° 0 mm 3 m/S 595 mmHg 51%
    15:00 +14°C° 0 mm 3 m/S 595 mmHg 55%
    16:00 +12°C° 0 mm 3 m/S 594 mmHg 60%
    17:00 +12°C° 0 mm 2 m/S 594 mmHg 65%
    18:00 +10°C° 0 mm 2 m/S 594 mmHg 68%
    19:00 +9°C° 0 mm 2 m/S 594 mmHg 71%
    20:00 +9°C° 0 mm 1 m/S 594 mmHg 75%
    21:00 +8°C° 0 mm 1 m/S 594 mmHg 78%
    22:00 +7°C° 0 mm 1 m/S 593 mmHg 81%
    23:00 +7°C° 0 mm 1 m/S 593 mmHg 84%

    19 Dezember, Donnerstag

    Zeit Temperatur Niederschläge Wind Luftdruck Luftfeuchtigkeit
    00:00 +6°C° 0 mm 1 m/S 592 mmHg 85%
    01:00 +6°C° 0 mm 1 m/S 592 mmHg 87%
    02:00 +5°C° 0 mm 0 m/S 592 mmHg 88%
    03:00 +5°C° 0 mm 0 m/S 592 mmHg 89%
    04:00 +5°C° 0 mm 0 m/S 592 mmHg 89%
    05:00 +5°C° 0 mm 0 m/S 592 mmHg 90%
    06:00 +6°C° 0 mm 0 m/S 593 mmHg 83%
    07:00 +8°C° 0 mm 0 m/S 594 mmHg 76%
    08:00 +11°C° 0 mm 1 m/S 595 mmHg 70%
    09:00 +13°C° 0 mm 1 m/S 596 mmHg 61%
    10:00 +16°C° 0 mm 1 m/S 596 mmHg 53%
    11:00 +20°C° 0 mm 1 m/S 597 mmHg 44%
    12:00 +19°C° 0 mm 2 m/S 597 mmHg 42%
    13:00 +20°C° 0 mm 2 m/S 596 mmHg 39%
    14:00 +21°C° 0 mm 3 m/S 596 mmHg 37%
    15:00 +20°C° 0 mm 3 m/S 595 mmHg 42%
    16:00 +18°C° 0 mm 2 m/S 595 mmHg 48%
    17:00 +16°C° 0 mm 2 m/S 594 mmHg 53%
    18:00 +15°C° 0 mm 1 m/S 594 mmHg 58%
    19:00 +14°C° 0 mm 1 m/S 594 mmHg 62%
    20:00 +12°C° 0 mm 0 m/S 594 mmHg 67%
    21:00 +12°C° 0 mm 0 m/S 594 mmHg 68%
    22:00 +11°C° 0 mm 0 m/S 594 mmHg 70%
    23:00 +12°C° 0 mm 1 m/S 594 mmHg 71%

    20 Dezember, Freitag

    Zeit Temperatur Niederschläge Wind Luftdruck Luftfeuchtigkeit
    00:00 +12°C° 0 mm 1 m/S 594 mmHg 71%
    01:00 +12°C° 0 mm 1 m/S 593 mmHg 70%
    02:00 +12°C° 0 mm 1 m/S 593 mmHg 70%
    03:00 +11°C° 0 mm 1 m/S 593 mmHg 70%
    04:00 +11°C° 0 mm 1 m/S 593 mmHg 70%
    05:00 +11°C° 0 mm 1 m/S 593 mmHg 70%
    06:00 +11°C° 0 mm 0 m/S 595 mmHg 63%
    07:00 +13°C° 0 mm 0 m/S 596 mmHg 57%
    08:00 +14°C° 0 mm 0 m/S 597 mmHg 50%
    09:00 +18°C° 0 mm 1 m/S 597 mmHg 46%
    10:00 +18°C° 0 mm 3 m/S 598 mmHg 42%
    11:00 +20°C° 0 mm 4 m/S 598 mmHg 39%
    12:00 +19°C° 0 mm 5 m/S 598 mmHg 41%
    13:00 +19°C° 0 mm 5 m/S 597 mmHg 43%
    14:00 +17°C° 0 mm 6 m/S 596 mmHg 46%
    15:00 +16°C° 0 mm 6 m/S 596 mmHg 50%
    16:00 +14°C° 0 mm 5 m/S 596 mmHg 54%
    17:00 +13°C° 0 mm 5 m/S 596 mmHg 58%
    18:00 +12°C° 0 mm 4 m/S 596 mmHg 60%
    19:00 +12°C° 0 mm 4 m/S 596 mmHg 62%
    20:00 +11°C° 0 mm 3 m/S 596 mmHg 64%
    21:00 +10°C° 0 mm 2 m/S 596 mmHg 68%
    22:00 +9°C° 0 mm 2 m/S 596 mmHg 73%
    23:00 +10°C° 0 mm 1 m/S 596 mmHg 77%
    Mehr zeigen